Regional Weather Roundup
Issued by NWS Cleveland, OH

Home | Current Version | Previous Version | Text Only | Print | Product List | Glossary On
Versions: 1 2 3 4 5 6 7 8 9 10 11 12 13 14 15 16 17 18 19 20 21 22 23 24 25 26 27 28 29 30 31 32 33 34 35 36 37 38 39 40 41 42 43 44 45 46 47 48 49 50
000
ASUS41 KCLE 210910
RWRCLE
OHIO REGIONAL WEATHER ROUNDUP
NATIONAL WEATHER SERVICE WILMINGTON, OH
400 AM EST SUN DEC 21 2014

NOTE: "FAIR" INDICATES FEW OR NO CLOUDS BELOW 12,000 FEET WITH NO
SIGNIFICANT WEATHER AND/OR OBSTRUCTIONS TO VISIBILITY.

OHZ001>008-015>018-024>027-034-035-043-044-211000-
   NORTHWEST OHIO

CITY           SKY/WX    TMP DP  RH WIND       PRES   REMARKS
DEFIANCE       CLOUDY    26  23  88 CALM      30.30S FOG
FINDLAY        PTCLDY    24  20  84 CALM      30.28S FOG
TOLEDO EXPRESS CLEAR     20  18  92 CALM      30.29S FOG
TOLEDO METCALF MOCLDY    23  20  88 CALM      30.31S FOG
LIMA           PTCLDY    30  24  78 SW3       30.28S HAZE
$$

OHZ009>014-019>023-028>033-038-089-211000-
   NORTHEAST OHIO

CITY           SKY/WX    TMP DP  RH WIND       PRES   REMARKS
CLE-HOPKINS    CLOUDY    28  23  81 CALM      30.32S
CLE-LAKEFRONT  CLOUDY    31  23  72 SW6       30.30S WCI  25
CUY CO. ARPT   NOT AVBL
LORAIN-ELYRIA  CLOUDY    28  25  88 CALM      30.30S
ASHTABULA      CLOUDY    29  24  82 CALM      30.29S
AKRON-CANTON   CLOUDY    28  22  78 CALM      30.28R
WOOSTER        CLOUDY    28  24  85 CALM      30.29R
MANSFIELD      CLOUDY    28  23  81 CALM      30.27S
YOUNGSTOWN     CLOUDY    28  23  81 CALM      30.27S
$$

OHZ042-051>053-060>062-070>072-077>081-211000-
  SOUTHWEST OHIO

CITY           SKY/WX    TMP DP  RH WIND       PRES   REMARKS
CINC-COVINGTON CLOUDY    31  22  69 E3        30.29S
CINC-LUNKEN    CLEAR     25  24  96 NE3       30.33R FOG
HAMILTON       CLEAR     18  15  88 CALM      30.32S FOG
DAYTON         MOCLDY    24  20  84 CALM      30.29F FOG
WRIGHT-PAT AFB PTCLDY    28  21  74 CALM      30.29F
DAYTON GENERAL CLEAR     23  21  92 NE3       30.28F FOG
WILMINGTON     CLOUDY    23  21  92 NE3       30.28F FOG
$$

OHZ036-037-039>041-045>050-054>059-063>069-073>076-082>088-211000-
  CENTRAL AND SOUTHEAST OHIO

CITY           SKY/WX    TMP DP  RH WIND       PRES   REMARKS
COLUMBUS       CLOUDY    30  24  78 CALM      30.30S
OSU AIRPORT    CLOUDY    29  25  85 CALM      30.30R
BOLTON FIELD   CLOUDY    28  27  94 MISG      30.30F FOG
RICKENBACK AFB CLOUDY    29  26  88 CALM      30.30S
NEWARK         CLOUDY    31  26  82 CALM      30.29S
MARION         CLOUDY    28  23  81 SW3       30.29R HAZE
LANCASTER      CLOUDY    35  26  69 CALM      30.30S HAZE
ZANESVILLE     CLOUDY    29  24  82 CALM      30.30S
NEW PHILLY     CLOUDY    30  22  72 CALM      30.30S
$$


USA.gov is the U.S. government's official web portal to all federal, state and local government web resources and services.